{"data":{"norad_id":37775,"intl_designator":"2011-041A","name":"ASTRA 1N","alt_names":[],"object_type":"PAYLOAD","status":"ACTIVE","operator":null,"country":"SES","launch_date":"2011-08-06","launch_site_code":"FRGUI","launch_vehicle":null,"mission":null,"orbit_class":"UNKNOWN","rcs_meters":7.9433,"size_class":null,"mass_kg":null,"dimensions":null,"purposes":["comms"],"wikipedia_slug":null,"has_3d_model":false,"image_url":null,"decayed_at":null,"tle_current":{"epoch":"2026-09-20T01:36:54.088416Z","epoch_age_seconds":51858,"freshness":"FRESH","line1":"1 37775U 11041A   26263.06729269  .00000115  00000+0  00000+0 0  9991","line2":"2 37775   0.0789  27.7368 0004875 121.9232 252.7420  1.00270600 45470","mean_motion":1.002706,"eccentricity":0.0004875,"inclination_deg":0.0789,"raan_deg":27.7368,"arg_perigee_deg":121.9232,"mean_anomaly_deg":252.742,"bstar":0,"rev_number":4547,"period_min":1436.1138758519,"perigee_km":35766.3716942,"apogee_km":35807.482631758,"semimajor_km":42165.064162979,"source":"CELESTRAK","updated_at":"2026-09-20T09:00:35.639688Z"}}}